Torna al catalogo

ANSER-FLW2

AttivoScienzaPO
NORAD 58018·PAYLOAD·🇪🇸 Spain

Lanciato Oct 9, 2023 da Guiana Space Centre

Loading…

Prossimi Passaggi (prossime 24 ore)

TLE

AggiornatoSource: Space-Track

Epoca: Sep 14, 2026, 12:25 UTC

1 58018U 23155C   26257.51766272  .00025480  00000-0  35118-3 0  9996
2 58018  97.5491 351.2104 0002693 147.6689 212.4731 15.57212170162815

Traccia ANSER-FLW2 in tempo reale con AllMySat

Download on the App Store